GW5131 Weather Reports


Display with metric or nautical units.
time (UTC)temp
F
wind
direction
speed
MPH
gust
MPH
rain 1hr
in
rain 24hr
in
rain mn
in
humidity
%
barometer
mb
20260502170506 50 38 4.0 9.0 0.00 0.00 0.00 43 979.9
20260502163950 50 199 5.0 7.0 0.00 0.00 0.00 45 980.1
20260502163445 50 72 2.0 4.0 0.00 0.00 0.00 47 980.1
20260502162943 50 55 7.0 9.0 0.00 0.00 0.00 46 980.0
20260502162440 51 214 3.0 6.0 0.00 0.00 0.00 41 980.3
20260502161937 49 95 6.0 7.0 0.00 0.00 0.00 49 980.4
20260502161433 49 64 4.0 7.0 0.00 0.00 0.00 50 980.5
20260502160931 51 180 1.0 3.0 0.00 0.00 0.00 48 980.5
20260502160429 51 113 1.0 2.0 0.00 0.00 0.00 54 980.4
20260502151907 49 359 6.0 8.0 0.00 0.00 0.00 53 980.6
20260502151403 51 97 3.0 7.0 0.00 0.00 0.00 49 980.8
20260502150901 49 64 5.0 8.0 0.00 0.00 0.00 53 980.8
20260502150357 48 168 3.0 4.0 0.00 0.00 0.00 57 981.0
20260502130746 45 57 2.0 3.0 0.00 0.00 0.00 83 980.9
20260502130243 45 36 2.0 3.0 0.00 0.00 0.00 84 980.9
20260502123729 41 70 1.0 2.0 0.00 0.00 0.00 92 981.1
20260502123226 40 81 0.0 0.0 0.00 0.00 0.00 92 981.2
20260502122722 40 88 0.0 1.0 0.00 0.00 0.00 94 981.1
20260502122218 39 98 1.0 1.0 0.00 0.00 0.00 97 981.0
20260502121717 39 99 1.0 1.0 0.00 0.00 0.00 99 981.0
20260502121214 38 110 0.0 0.0 0.00 0.00 0.00 99 981.1
20260502120711 37 110 0.0 1.0 0.00 0.00 0.00 99 981.1
20260502120208 37 146 0.0 0.0 0.00 0.00 0.00 99 981.0
20260502115706 35 146 0.0 0.0 0.00 0.00 0.00 99 981.1
20260502115202 34 146 0.0 0.0 0.00 0.00 0.00 99 981.2
20260502114658 34 146 0.0 0.0 0.00 0.00 0.00 99 981.1
20260502114155 35 151 0.0 0.0 0.00 0.00 0.00 99 981.2
20260502113652 34 151 0.0 0.0 0.00 0.00 0.00 99 981.1
20260502113150 33 151 0.0 0.0 0.00 0.00 0.00 99 981.1
20260502112648 33 151 0.0 0.0 0.00 0.00 0.00 99 981.1
20260502112145 33 150 0.0 0.0 0.00 0.00 0.00 99 981.1
20260502111642 33 150 0.0 0.0 0.00 0.00 0.00 99 981.2
20260502111140 33 150 0.0 0.0 0.00 0.00 0.00 99 981.0
20260502110638 32 150 0.0 0.0 0.00 0.00 0.00 99 980.8
20260502110135 32 150 0.0 0.0 0.00 0.00 0.00 99 981.0
20260502105632 32 150 0.0 0.0 0.00 0.00 0.00 99 981.0
20260502105129 32 150 0.0 0.0 0.00 0.00 0.00 99 981.3
20260502104626 32 150 0.0 0.0 0.00 0.00 0.00 99 981.2
20260502104124 32 150 0.0 0.0 0.00 0.00 0.00 99 981.0
20260502103621 32 150 0.0 0.0 0.00 0.00 0.00 99 981.3
20260502103119 32 150 0.0 0.0 0.00 0.00 0.00 99 981.2
20260502102615 32 150 0.0 0.0 0.00 0.00 0.00 99 981.1
20260502102112 32 150 0.0 0.0 0.00 0.00 0.00 99 981.2
20260502101610 32 150 0.0 0.0 0.00 0.00 0.00 99 981.0
20260502101108 32 151 0.0 0.0 0.00 0.00 0.00 99 981.0
20260502100606 32 150 0.0 0.0 0.00 0.00 0.00 99 981.2
20260502100104 32 150 0.0 0.0 0.00 0.00 0.00 99 981.3
20260502091038 32 150 0.0 0.0 0.00 0.00 0.00 99 981.1
20260502090535 32 150 0.0 0.0 0.00 0.00 0.00 99 981.1
20260502071429 35 172 0.0 0.0 0.00 0.00 0.00 98 980.7
20260502070927 35 172 0.0 0.0 0.00 0.00 0.00 98 980.6
20260502070425 36 172 0.0 0.0 0.00 0.00 0.00 98 980.8
20260502065924 35 172 0.0 0.0 0.00 0.00 0.00 97 980.7
20260502065422 36 249 0.0 0.0 0.00 0.00 0.00 97 980.8
20260502064919 36 249 0.0 0.0 0.00 0.00 0.00 97 980.9
20260502064417 36 199 0.0 0.0 0.00 0.00 0.00 97 980.8
20260502063914 37 199 0.0 0.0 0.00 0.00 0.00 97 981.0
20260502063411 37 199 0.0 0.0 0.00 0.00 0.00 96 981.0
20260502062909 37 233 0.0 0.0 0.00 0.00 0.00 96 981.1
20260502062406 37 234 0.0 0.0 0.00 0.00 0.00 95 980.9
20260502061905 38 234 0.0 0.0 0.00 0.00 0.00 95 981.0
20260502061402 38 234 0.0 0.0 0.00 0.00 0.00 95 980.9
20260502060858 38 188 0.0 0.0 0.00 0.00 0.00 94 981.0
20260502060353 38 188 0.0 0.0 0.00 0.00 0.00 94 981.2
20260502055851 39 148 0.0 1.0 0.00 0.00 0.00 94 981.2
20260502055348 39 150 0.0 0.0 0.00 0.00 0.00 92 981.2
20260502054848 40 150 0.0 0.0 0.00 0.00 0.00 91 981.1
20260502054345 40 150 0.0 0.0 0.00 0.00 0.00 90 981.2
20260502053842 41 150 0.0 0.0 0.00 0.00 0.00 88 981.2
20260502053339 42 200 0.0 1.0 0.00 0.00 0.00 85 981.1
20260502052837 42 98 0.0 2.0 0.00 0.00 0.00 85 981.1
20260502052335 42 305 0.0 0.0 0.00 0.00 0.00 84 981.3
20260502051832 43 298 1.0 2.0 0.00 0.00 0.00 83 981.2
20260502051331 43 287 0.0 1.0 0.00 0.00 0.00 85 981.2
20260502050827 43 279 1.0 2.0 0.00 0.00 0.00 84 981.3
20260502050324 44 194 0.0 1.0 0.00 0.00 0.00 83 981.2
20260502045821 44 95 0.0 1.0 0.00 0.00 0.00 84 981.2
20260502045317 44 344 0.0 1.0 0.00 0.00 0.00 85 981.3
20260502044814 44 253 0.0 0.0 0.00 0.00 0.00 79 981.4
20260502044310 45 253 0.0 1.0 0.00 0.00 0.00 78 981.5
20260502043808 45 278 0.0 1.0 0.00 0.00 0.00 77 981.5
20260502043305 45 277 0.0 1.0 0.00 0.00 0.00 77 981.5
20260502042805 45 206 0.0 0.0 0.00 0.00 0.00 78 981.3
20260502042305 45 206 0.0 1.0 0.00 0.00 0.00 80 981.2
20260502041800 46 104 0.0 1.0 0.00 0.00 0.00 75 981.2
20260502041257 45 67 0.0 0.0 0.00 0.00 0.00 78 981.2
20260502040754 45 67 0.0 1.0 0.00 0.00 0.00 80 981.1
20260502040251 46 67 1.0 1.0 0.00 0.00 0.00 78 981.2
20260502035746 46 67 0.0 1.0 0.00 0.01 0.01 77 981.3
20260502035244 46 67 0.0 1.0 0.00 0.01 0.01 75 981.4
20260502034741 46 53 0.0 1.0 0.00 0.01 0.01 73 981.3
20260502034239 46 224 2.0 2.0 0.00 0.01 0.01 72 981.2
20260502033737 46 117 2.0 4.0 0.00 0.01 0.01 74 981.0
20260502033235 46 147 0.0 1.0 0.00 0.01 0.01 79 981.2
20260502032731 47 147 0.0 1.0 0.00 0.01 0.01 74 981.0
20260502032227 46 146 4.0 6.0 0.00 0.01 0.01 72 981.1
20260502031725 47 77 0.0 0.0 0.00 0.01 0.01 72 980.9
20260502031223 47 45 3.0 3.0 0.00 0.01 0.01 73 980.8
20260502030721 47 26 1.0 2.0 0.00 0.01 0.01 72 981.1
20260502030219 47 352 2.0 2.0 0.00 0.01 0.01 74 981.0
20260502025715 47 53 0.0 2.0 0.00 0.01 0.01 76 981.1
20260502025214 47 50 4.0 7.0 0.00 0.01 0.01 72 980.8
20260502024711 47 64 2.0 4.0 0.00 0.01 0.01 71 981.2
20260502024209 47 14 1.0 2.0 0.00 0.01 0.01 73 981.0
20260502023707 48 54 2.0 4.0 0.00 0.01 0.01 71 980.9
20260502023204 48 46 2.0 4.0 0.00 0.01 0.01 74 980.7
20260502022701 48 16 1.0 2.0 0.00 0.01 0.01 71 980.6
20260502022158 48 82 2.0 7.0 0.00 0.01 0.01 73 980.6
20260502021655 48 50 2.0 6.0 0.00 0.01 0.01 78 980.6
20260502021152 48 36 2.0 8.0 0.00 0.01 0.01 78 980.4
20260502020649 49 26 4.0 6.0 0.00 0.01 0.01 82 980.2
20260502020146 48 70 2.0 3.0 0.00 0.01 0.01 87 980.3
20260502015644 48 185 0.0 2.0 0.00 0.01 0.01 83 980.0
20260502015140 48 208 1.0 2.0 0.00 0.01 0.01 91 979.8
20260502014638 48 126 1.0 2.0 0.00 0.01 0.01 89 979.9
20260502014135 47 127 0.0 0.0 0.00 0.01 0.01 89 979.9
20260502013631 47 146 0.0 0.0 0.00 0.01 0.01 94 979.9
20260502013126 47 146 1.0 1.0 0.00 0.01 0.01 93 979.8
20260502012624 47 146 0.0 1.0 0.00 0.01 0.01 93 979.9
20260502012122 47 146 0.0 1.0 0.00 0.01 0.01 93 979.7
20260502011618 47 174 1.0 1.0 0.00 0.01 0.01 91 979.7
20260502011114 47 174 0.0 1.0 0.00 0.01 0.01 91 979.6
20260502010612 47 173 0.0 0.0 0.00 0.01 0.01 93 979.7
20260502010108 47 173 0.0 1.0 0.00 0.01 0.01 90 979.4
20260502005606 47 173 0.0 0.0 0.00 0.01 0.01 92 979.5
20260502005103 47 173 1.0 1.0 0.00 0.01 0.01 92 979.4
20260502004559 48 173 0.0 0.0 0.00 0.01 0.01 91 979.2
20260502004056 47 223 0.0 0.0 0.00 0.01 0.01 90 979.3
20260502003554 48 149 0.0 0.0 0.00 0.01 0.01 90 978.9
20260502003050 48 149 0.0 0.0 0.00 0.01 0.01 89 979.0
20260502002547 48 149 1.0 2.0 0.00 0.01 0.01 89 978.8
20260502002044 48 213 0.0 1.0 0.00 0.01 0.01 89 978.6
20260502001542 48 169 1.0 2.0 0.00 0.01 0.01 88 978.6
20260502001039 48 206 0.0 0.0 0.00 0.01 0.01 87 978.6
20260502000537 49 206 1.0 2.0 0.00 0.01 0.01 80 978.5
20260502000034 50 199 1.0 1.0 0.00 0.01 0.01 81 978.2
20260501235529 50 171 1.0 2.0 0.00 0.01 0.01 76 978.2
20260501235025 50 141 1.0 3.0 0.00 0.01 0.01 74 978.2
20260501234521 51 102 2.0 2.0 0.00 0.01 0.01 72 978.3
20260501234020 51 103 0.0 2.0 0.00 0.01 0.01 71 978.0
20260501233517 51 119 4.0 4.0 0.00 0.01 0.01 74 978.0
20260501233014 51 4 4.0 7.0 0.00 0.01 0.01 71 978.2
20260501232510 52 23 4.0 4.0 0.00 0.01 0.01 73 977.9
20260501232008 52 274 0.0 1.0 0.00 0.01 0.01 74 977.8
20260501231505 52 273 1.0 2.0 0.00 0.01 0.01 74 978.0
20260501231003 52 68 5.0 7.0 0.00 0.01 0.01 72 978.0
20260501230502 53 51 2.0 6.0 0.00 0.01 0.01 73 977.8
20260501225959 53 64 4.0 6.0 0.00 0.01 0.01 72 977.6
20260501225457 53 4 1.0 2.0 0.00 0.01 0.01 74 977.8
20260501224952 53 73 2.0 3.0 0.00 0.01 0.01 72 977.8
20260501224450 53 61 5.0 8.0 0.00 0.01 0.01 72 977.6
20260501223947 53 42 5.0 7.0 0.00 0.01 0.01 71 977.6
20260501223443 54 52 4.0 9.0 0.00 0.01 0.01 70 977.4
20260501222938 55 264 2.0 2.0 0.00 0.01 0.01 70 977.5
20260501222436 54 57 5.0 14.0 0.00 0.01 0.01 68 977.4
20260501221932 54 22 4.0 7.0 0.00 0.01 0.01 69 977.3
20260501221430 55 62 5.0 9.0 0.00 0.01 0.01 69 977.1
20260501220927 55 43 4.0 6.0 0.00 0.01 0.01 71 977.1
20260501220425 55 56 2.0 6.0 0.00 0.01 0.01 68 977.0
20260501215921 55 72 2.0 8.0 0.00 0.01 0.01 66 977.1
20260501215418 55 156 0.0 4.0 0.00 0.01 0.01 67 976.9
20260501214913 56 57 5.0 8.0 0.00 0.01 0.01 64 977.0
20260501214408 56 50 3.0 8.0 0.00 0.01 0.01 62 976.9
20260501213904 56 289 3.0 16.0 0.00 0.01 0.01 59 976.7
20260501213401 57 28 10.0 15.0 0.00 0.01 0.01 58 976.5
20260501212857 57 168 4.0 7.0 0.00 0.01 0.01 57 976.6
20260501212354 57 86 5.0 14.0 0.00 0.01 0.01 58 976.7
20260501211851 58 107 5.0 9.0 0.00 0.01 0.01 54 976.5
20260501211348 59 152 3.0 6.0 0.00 0.01 0.01 53 976.3
20260501210845 59 62 6.0 8.0 0.00 0.01 0.01 53 976.2
20260501210342 60 56 4.0 17.0 0.00 0.01 0.01 48 976.1
20260501205838 60 118 3.0 9.0 0.00 0.01 0.01 47 976.0
20260501205336 61 26 5.0 13.0 0.00 0.01 0.01 47 976.0
20260501204832 61 267 5.0 6.0 0.00 0.01 0.01 43 975.7
20260501204329 62 114 1.0 4.0 0.00 0.01 0.01 42 975.6
20260501203825 62 85 1.0 4.0 0.00 0.01 0.01 41 975.4
20260501203323 62 184 4.0 9.0 0.00 0.01 0.01 39 975.6
20260501202819 63 6 3.0 7.0 0.00 0.01 0.01 37 975.4
20260501202317 63 29 1.0 6.0 0.00 0.01 0.01 36 975.4
20260501201813 63 33 2.0 3.0 0.00 0.01 0.01 35 975.4
20260501201310 63 118 5.0 7.0 0.00 0.01 0.01 37 975.5
20260501200807 64 214 2.0 6.0 0.00 0.01 0.01 34 975.1
20260501200304 64 55 4.0 4.0 0.00 0.01 0.01 32 975.1
20260501195801 64 61 4.0 7.0 0.00 0.01 0.01 31 975.1
20260501195257 64 134 1.0 7.0 0.00 0.01 0.01 33 975.2
20260501194753 65 103 2.0 7.0 0.00 0.01 0.01 35 975.2
20260501194249 65 105 4.0 6.0 0.00 0.01 0.01 30 975.5
20260501193746 65 40 1.0 8.0 0.00 0.01 0.01 34 975.1
20260501193244 65 110 4.0 13.0 0.00 0.01 0.01 38 975.4
20260501192741 65 176 2.0 10.0 0.00 0.01 0.01 37 975.4
20260501192238 65 337 9.0 11.0 0.00 0.01 0.01 31 975.6
20260501191735 66 150 2.0 6.0 0.00 0.01 0.01 36 975.5
20260501191233 67 117 4.0 7.0 0.00 0.01 0.01 42 975.6
20260501190729 66 327 3.0 4.0 0.00 0.01 0.01 33 975.5
20260501190224 64 338 2.0 3.0 0.00 0.01 0.01 30 975.7
20260501185721 64 67 1.0 4.0 0.00 0.01 0.01 29 975.7
20260501185217 66 106 4.0 7.0 0.00 0.01 0.01 35 975.7
20260501184713 64 356 4.0 9.0 0.00 0.01 0.01 31 975.8
20260501184208 65 99 3.0 4.0 0.00 0.01 0.01 31 975.9
20260501183705 64 57 3.0 4.0 0.00 0.01 0.01 32 976.0
20260501183202 63 116 1.0 4.0 0.00 0.01 0.01 30 975.8
20260501182658 63 178 4.0 6.0 0.00 0.01 0.01 31 975.9
20260501182154 64 255 3.0 8.0 0.00 0.01 0.01 29 976.1
20260501181652 64 138 4.0 7.0 0.00 0.01 0.01 29 976.1
20260501181149 64 97 4.0 10.0 0.00 0.01 0.01 34 976.1
20260501180647 64 214 4.0 6.0 0.00 0.01 0.01 39 976.0
20260501180143 64 108 3.0 6.0 0.00 0.01 0.01 34 976.1
20260501175639 63 109 2.0 6.0 0.00 0.01 0.01 34 976.2